Location: Martley
(52.2333°N, 2.3667°W)
Time: 05:58:05
(UTC+00:00)

Okean-O - Pass Details

Date: 11 December 2019
Orbit: 639 x 641 km, 98.2° (Epoch: 21 January)

Event Time Altitude Azimuth Distance (km) Brightness Sun altitude
Rises 06:32:22 0° 19° (NNE) 2,960 6.0 -13.6°
Reaches altitude 10° 06:34:42 10° 27° (NNE) 2,045 5.3 -13.3°
Maximum altitude 06:38:55 41° 98° (E) 933 4.1 -12.7°
Drops below altitude 10° 06:43:06 10° 169° (S) 2,028 5.7 -12.1°
Sets 06:45:24 0° 177° (S) 2,932 6.4 -11.8°
